Flag for Norway Weather past 2 weeks in Eidsvoll, Norway

Now
32 °F

Light rain. Passing clouds.


Feels Like: 21 °F
Forecast: 29 / 33 °F
Wind: 17 mph from South

Location: Oslo Gardermoen Airport

Current Time: Mar 1, 2015 at 4:02:08 AM

Latest Report: Mar 1, 2015 at 3:20 AM


Visibility: 5 mi

Pressure: 29.36 "Hg

Humidity: 93%

Dew point: 30 °F

Location of EidsvollLocation

Historic Weather in Eidsvoll — Graph

°F

Eidsvoll temperature yesterday

Maximum temperature yesterday: 36 °F (at 11:20 AM)
Minimum temperature yesterday: 27 °F (at 3:20 AM)
Average temperature yesterday: 32 °F

Past Weeks' High & Low Weather Summary

 TemperatureHumidityPressure
High43 °F (Feb 18, 8:20 PM)100% (Feb 14, 6:50 AM)30.51 "Hg (Feb 14, 6:50 AM)
Low16 °F (Feb 22, 5:20 AM)38% (Feb 22, 4:20 PM)28.97 "Hg (Feb 23, 1:20 PM)
Average32 °F88%29.71 "Hg
* Reported Feb 14 2:20 AM — Mar 1 2:50 AM, Eidsvoll, Weather by CustomWeather, © 2015

Note: Actual official high and low records may vary slightly from our data, if they occured in-between our weather recording intervals... More about our weather records

Advertising

Eidsvoll weather history for previous 24 hours

 ConditionsComfort  
Time TempWeatherWind HumidityBarometerVisibility
2:50 AM
Sun, Mar 1
34 °FLight rain. Passing clouds.16 mph93%29.39 "Hg5 mi
2:20 AM34 °FLight rain. Passing clouds.17 mph93%29.39 "Hg6 mi
1:50 AM34 °FLight rain. Passing clouds.15 mph93%29.42 "HgN/A
1:20 AM34 °FLight rain. Passing clouds.17 mph93%29.42 "HgN/A
12:50 AM34 °FLight rain. Low clouds.20 mph93%29.42 "HgN/A
12:20 AM34 °FLight rain. Partly cloudy.18 mph93%29.45 "HgN/A
11:50 PM
Sat, Feb 28
34 °FLight rain. Partly cloudy.18 mph93%29.45 "Hg6 mi
11:20 PM34 °FLight rain. Partly cloudy.18 mph93%29.45 "Hg6 mi
10:50 PM34 °FLight rain. Low clouds.15 mph93%29.47 "Hg6 mi
10:20 PM34 °FLight rain. Partly cloudy.16 mph93%29.50 "HgN/A
9:20 PM34 °FLight rain. Partly cloudy.17 mph93%29.53 "HgN/A
8:50 PM34 °FLight rain. Passing clouds.17 mph93%29.53 "Hg6 mi
8:20 PM34 °FLight rain. Partly cloudy.16 mph93%29.53 "Hg5 mi
7:50 PM34 °FLight rain. Partly cloudy.18 mph93%29.53 "Hg4 mi
7:20 PM34 °FLight rain. Partly cloudy.17 mph93%29.56 "HgN/A
6:50 PM34 °FLight rain. Mostly cloudy.15 mph93%29.56 "HgN/A
6:20 PM34 °FLight rain. Mostly cloudy.20 mph93%29.56 "HgN/A
5:50 PM34 °FLight rain. Mostly cloudy.20 mph93%29.56 "HgN/A
5:20 PM36 °FLight rain. More clouds than sun.17 mph87%29.56 "HgN/A
4:50 PM36 °FLight rain. More clouds than sun.20 mph87%29.59 "HgN/A
4:20 PM36 °FLight rain. More clouds than sun.18 mph87%29.59 "HgN/A
3:50 PM36 °FLight rain. More clouds than sun.22 mph87%29.62 "HgN/A
3:20 PM36 °FDrizzle. More clouds than sun.21 mph87%29.62 "HgN/A
2:50 PM36 °FDrizzle. Broken clouds.23 mph87%29.62 "HgN/A
2:20 PM36 °FLight rain. More clouds than sun.20 mph87%29.65 "HgN/A
1:50 PM36 °FLight rain. More clouds than sun.20 mph87%29.65 "HgN/A
1:20 PM36 °FLight rain. More clouds than sun.18 mph87%29.65 "HgN/A
12:50 PM36 °FOvercast.20 mph87%29.65 "HgN/A
12:20 PM36 °FMore clouds than sun.21 mph87%29.68 "HgN/A
11:50 AM36 °FPartly sunny.20 mph81%29.68 "HgN/A
11:20 AM36 °FBroken clouds.17 mph87%29.68 "HgN/A
10:50 AM34 °FMore clouds than sun.14 mph93%29.68 "HgN/A
10:20 AM34 °FPartly sunny.10 mph93%29.71 "HgN/A
9:50 AM32 °FBroken clouds.8 mph93%29.71 "HgN/A
9:20 AM32 °FCloudy.10 mph93%29.74 "HgN/A
8:50 AM30 °FMore clouds than sun.9 mph93%29.74 "HgN/A
8:20 AM28 °FLow clouds.6 mph93%29.74 "HgN/A
7:50 AM28 °FLow clouds.5 mph93%29.74 "HgN/A
7:20 AM28 °FChilly.6 mph93%29.74 "Hg2 mi
6:50 AM28 °FIce fog.7 mph93%29.77 "Hg4 mi
6:20 AM28 °FChilly.2 mph93%29.77 "Hg1 mi
5:50 AM27 °FChilly.3 mph100%29.77 "Hg1 mi
5:20 AM27 °FIce fog.3 mph100%29.77 "Hg1 mi
4:50 AM27 °FIce fog.3 mph100%29.77 "Hg1 mi
Weather by CustomWeather, © 2015

See weather overviewHow to use our weather pages